sat.trackr.live / text

‹ back to catalog

STARLINK-36863

NORAD 67949 · 2026-037T

PAYLOAD ACTIVE UNKNOWN

§ Identity

Operator
Country
US
Launch date
2026-02-24
Launch site
AFETR
Launch vehicle
Mass (kg)
RCS (m²)

Purposes: comms

External: N2YO · Heavens-Above · Gunter

§ Orbital elements

Epoch: 2026-09-19T11:34:21.155520Z

Period
94.27 min
Inclination
43.0029°
Eccentricity
0.0001397
Mean motion
15.27584052 rev/d
Perigee alt
482.1 km
Apogee alt
484.0 km
Semi-major
6,861.2 km
B*
3.2834e-4
RAAN
175.8551°
Arg perigee
273.2728°
Mean anomaly
86.7964°
Rev number
3,298

§ Raw data

STARLINK-368631 67949U 26037T   26262.48218930  .00008785  00000+0  32834-3 0  99962 67949  43.0029 175.8551 0001397 273.2728  86.7964 15.27584052 32989

JSON: /api/v1/satellites/67949 · /tle

For live sub-satellite position, see the globe view (requires WebGL).

§ Visibility from observer

Set your observer location to see the next 7 days of passes ≥ 10°. The values pass through the URL so the page stays shareable.

No JS? Fill the form by hand. The geolocation button needs JavaScript.